Content
SEND FEEDBACK

Daily
Averages
Monthly
Summary
Malaysia

KUCHING, MALAYSIA


Home > Asia > Malaysia
Elevation: 89 feet     Latitude: 01 29N     Longitude: 110 20E

WEATHER
 
SELECT A DAY
Number of Records: 278,349;   Date Range: 8/9/96 - 10/20/14
 
SHARE

PRINT THIS DATA

[ ← Previous Day ]
WEATHER ALMANAC - MAY 6, 2013
[ Next Day → ]
[ °C ]   °F
Weather ElementAverageHighLow
Temperature79.8 °F89.6 °F (11:00 am)77 °F (2:00 am)
Dewpoint76.6 °F78.8 °F (9:00 am)75.2 °F (2:30 am)
Humidity90.1 %100 % (2:00 am)61 % (11:00 am)
Barometer29.75 in29.82 in (11:00 am)29.68 in (3:30 pm)
Wind Speed4.7 mph16.1 mph (3:00 pm)
Weather ElementAverage
Visibility5.7 mi
Wind DirectionSW (230.4 °)

Weather ElementTotal
Precipitation---
Cooling Degree Days18.3 (Base 65)
Growing Degree Days33.3 (Base 50)
Averaged from 55 records on May 6, 2013
WEATHER CONDITIONS BREAKOUT
WIND DIRECTION BREAKOUT
WEATHER BY HOUR - MAY 6, 2013
[ °C ]   °F
Local TimeTemperatureDewpointHumidityBarometerVisibilityWind DirectionWind SpeedGust SpeedPrecipitationEventsConditions
12:30 AM78.8 °F77.0 °F94 %29.77 in6.2 miWSW (250°)6.9 mphMostly Cloudy
1:00 AM78.8 °F77.0 °F94 %29.80 in6.2 miWest (260°)5.8 mphMostly Cloudy
1:30 AM78.8 °F77.0 °F94 %29.77 in6.2 miWest (270°)4.6 mphMostly Cloudy
2:00 AM78.0 °F76.0 °F92 %29.77 in6.0 miWest (270°)6.9 mphPartly Cloudy
2:00 AM77.0 °F77.0 °F100 %29.77 in6.2 miWest (270°)6.9 mphMostly Cloudy
2:30 AM77.0 °F75.2 °F94 %29.74 in6.2 miWest (260°)6.9 mphMostly Cloudy
3:00 AM78.8 °F75.2 °F89 %29.74 in6.2 miWSW (250°)5.8 mphMostly Cloudy
3:30 AM77.0 °F75.2 °F94 %29.74 in6.2 miWSW (250°)3.5 mphMostly Cloudy
4:00 AM77.0 °F75.2 °F94 %29.74 in6.2 miWSW (240°)5.8 mphMostly Cloudy
4:30 AM77.0 °F75.2 °F94 %29.74 in6.2 miWest (260°)5.8 mphMostly Cloudy
5:00 AM78.0 °F76.0 °F91 %29.75 in9.0 miSW (230°)4.6 mphPartly Cloudy
5:00 AM77.0 °F75.2 °F94 %29.74 in6.2 miSW (230°)4.6 mphMostly Cloudy
5:30 AM77.0 °F75.2 °F94 %29.74 in6.2 miSW (230°)5.8 mphMostly Cloudy
6:00 AM77.0 °F75.2 °F94 %29.77 in6.2 miSSE (150°)2.3 mphMostly Cloudy
6:30 AM77.0 °F75.2 °F94 %29.77 in6.2 miSouth (180°)1.2 mphMostly Cloudy
7:00 AM77.0 °F75.2 °F94 %29.80 in6.2 miSE (130°)1.2 mphThunderstormThunderstorm
7:30 AM77.0 °F75.2 °F94 %29.80 in6.2 miWSW (250°)1.2 mphThunderstormThunderstorm
8:00 AM79.0 °F76.0 °F90 %29.81 in12.0 miSSW (210°)3.5 mphThunderstormThunderstorm
8:00 AM78.8 °F77.0 °F94 %29.80 in6.2 miSSW (210°)3.5 mphThunderstormThunderstorm
8:30 AM80.6 °F77.0 °F89 %29.80 in6.2 miSouth (190°)3.5 mphMostly Cloudy
9:00 AM84.2 °F78.8 °F84 %29.80 in6.2 miSouth (180°)5.8 mphMostly Cloudy
9:30 AM86.0 °F77.0 °F74 %29.80 in6.2 miSouth (180°)3.5 mphMostly Cloudy
10:00 AM86.0 °F77.0 °F74 %29.80 in6.2 miSW (230°)3.5 mphMostly Cloudy
10:30 AM87.8 °F78.8 °F75 %29.80 in6.2 miNorth (360°)2.3 mphMostly Cloudy
11:00 AM89.0 °F77.0 °F61 %29.82 in12.0 miESE (120°)2.3 mphPartly Cloudy
11:00 AM89.6 °F77.0 °F66 %29.80 in6.2 miESE (120°)2.3 mphMostly Cloudy
11:30 AM89.6 °F77.0 °F66 %29.80 in6.2 miWNW (300°)2.3 mphMostly Cloudy
12:00 PM89.6 °F78.8 °F70 %29.77 in6.2 miNNW (340°)3.5 mphMostly Cloudy
12:30 PM87.8 °F77.0 °F70 %29.77 in6.2 miNNW (340°)5.8 mphMostly Cloudy
1:00 PM82.4 °F77.0 °F84 %29.74 in0.9 miWNW (300°)8.1 mphRainRain Showers
1:30 PM80.6 °F78.8 °F94 %29.74 in0.6 miWNW (290°)10.4 mphRainHeavy Rain Showers
2:00 PM79.0 °F76.0 °F87 %29.73 in2.0 miWNW (300°)12.7 mphRain-ThunderstormThunderstorms and Rain
2:00 PM78.8 °F75.2 °F89 %29.71 in1.9 miWNW (300°)12.7 mphRain-ThunderstormThunderstorms and Rain
2:30 PM78.8 °F77.0 °F94 %29.71 in0.4 miEast (90°)8.1 mphRain-ThunderstormThunderstorms and Rain
3:00 PM77.0 °F75.2 °F94 %29.71 in0.4 miSouth (170°)16.1 mphRain-ThunderstormThunderstorms and Rain
3:30 PM77.0 °F77.0 °F100 %29.68 in5.0 miSouth (190°)11.5 mphRain-ThunderstormLight Thunderstorms and Rain
4:00 PM78.8 °F77.0 °F94 %29.68 in6.2 miSSW (200°)3.5 mphRainLight Rain
4:30 PM78.8 °F77.0 °F94 %29.68 in6.2 miENE (70°)1.2 mphMostly Cloudy
5:00 PM79.0 °F77.0 °F90 %29.69 in12.0 miWest (260°)3.5 mphRainLight Rain
5:00 PM78.8 °F77.0 °F94 %29.68 in6.2 miWest (260°)3.5 mphMostly Cloudy
5:30 PM78.8 °F77.0 °F94 %29.68 in6.2 miSSW (210°)1.2 mphMostly Cloudy
6:00 PM78.8 °F77.0 °F94 %29.71 in6.2 miSSW (210°)3.5 mphMostly Cloudy
6:30 PM78.8 °F77.0 °F94 %29.71 in6.2 miWSW (240°)3.5 mphMostly Cloudy
7:00 PM78.8 °F77.0 °F94 %29.71 in6.2 miWSW (240°)3.5 mphMostly Cloudy
7:30 PM78.8 °F77.0 °F94 %29.71 in6.2 miWSW (240°)4.6 mphMostly Cloudy
8:00 PM78.0 °F77.0 °F97 %29.75 in9.0 miSSW (210°)3.5 mphPartly Cloudy
8:00 PM78.8 °F77.0 °F94 %29.74 in6.2 miSSW (210°)3.5 mphMostly Cloudy
8:30 PM78.8 °F77.0 °F94 %29.74 in6.2 miWSW (240°)4.6 mphMostly Cloudy
9:00 PM78.8 °F77.0 °F94 %29.77 in6.2 miWest (270°)2.3 mphMostly Cloudy
9:30 PM78.8 °F77.0 °F94 %29.77 in6.2 miWSW (240°)4.6 mphMostly Cloudy
10:00 PM78.8 °F77.0 °F94 %29.77 in6.2 miSSW (210°)2.3 mphMostly Cloudy
10:30 PM77.0 °F77.0 °F100 %29.77 in3.7 miSW (220°)1.2 mphMostly Cloudy
11:00 PM78.0 °F77.0 °F95 %29.80 in2.0 miWest (270°)3.5 mphMist
11:00 PM77.0 °F77.0 °F100 %29.77 in1.9 miWest (270°)3.5 mphMostly Cloudy
11:30 PM77.0 °F77.0 °F100 %29.77 in1.2 miSSW (200°)2.3 mphMostly Cloudy
Hourly data recorded from WBGG, located miles away from Kuching, Malaysia







STORIES FROM OUR PARTNERS